| time (UTC) | temp F | wind direction | speed MPH | gust MPH | rain 1hr in | rain 24hr in | rain mn in | humidity % | barometer mb |
| 20260506043028 | 64 | 151 | 0.0 | 0.0 | 0.00 | 0.00 | 0.00 | 68 | 1013.2 |
| 20260506041525 | 65 | 151 | 0.0 | 0.0 | 0.00 | 0.00 | 0.00 | 67 | 1013.6 |
| 20260506040022 | 65 | 151 | 0.0 | 0.0 | 0.00 | 0.00 | 0.00 | 68 | 1013.5 |
| 20260506034522 | 66 | 151 | 0.0 | 0.0 | 0.00 | 0.00 | 0.00 | 67 | 1013.3 |
| 20260506033031 | 66 | 153 | 0.0 | 0.0 | 0.00 | 0.00 | 0.00 | 66 | 1013.3 |
| 20260506031530 | 67 | 153 | 0.0 | 0.0 | 0.00 | 0.00 | 0.00 | 66 | 1013.1 |
| 20260506030045 | 67 | 153 | 0.0 | 0.0 | 0.00 | 0.00 | 0.00 | 62 | 1013.3 |
| 20260506024526 | 68 | 153 | 0.0 | 0.0 | 0.00 | 0.00 | 0.00 | 63 | 1013.4 |
| 20260506023018 | 69 | 185 | 0.0 | 0.0 | 0.00 | 0.00 | 0.00 | 61 | 1013.4 |
| 20260506021519 | 69 | 150 | 0.0 | 1.0 | 0.00 | 0.00 | 0.00 | 59 | 1013.2 |
| 20260506020017 | 70 | 156 | 0.0 | 0.0 | 0.00 | 0.00 | 0.00 | 60 | 1013.2 |
| 20260506014517 | 70 | 156 | 0.0 | 0.0 | 0.00 | 0.00 | 0.00 | 63 | 1013.2 |
| 20260506013016 | 71 | 174 | 0.0 | 1.0 | 0.00 | 0.00 | 0.00 | 62 | 1012.9 |
| 20260506011524 | 71 | 143 | 0.0 | 1.0 | 0.00 | 0.00 | 0.00 | 61 | 1012.7 |
| 20260506010015 | 71 | 142 | 0.0 | 0.0 | 0.00 | 0.00 | 0.00 | 62 | 1012.9 |
| 20260506004525 | 71 | 222 | 0.0 | 0.0 | 0.00 | 0.00 | 0.00 | 58 | 1012.7 |
| 20260506003017 | 73 | 222 | 0.0 | 0.0 | 0.00 | 0.00 | 0.00 | 57 | 1012.7 |
| 20260506001513 | 74 | 222 | 0.0 | 0.0 | 0.00 | 0.00 | 0.00 | 54 | 1012.7 |
| 20260506000018 | 76 | 225 | 0.0 | 6.0 | 0.00 | 0.00 | 0.00 | 51 | 1012.9 |
| 20260505234512 | 77 | 269 | 4.0 | 10.0 | 0.00 | 0.00 | 0.00 | 49 | 1012.7 |
| 20260505233011 | 78 | 234 | 3.0 | 8.0 | 0.00 | 0.00 | 0.00 | 46 | 1012.5 |
| 20260505231512 | 78 | 240 | 3.0 | 10.0 | 0.00 | 0.00 | 0.00 | 48 | 1012.4 |
| 20260505230008 | 79 | 247 | 4.0 | 11.0 | 0.00 | 0.00 | 0.00 | 45 | 1012.5 |
| 20260505224506 | 79 | 259 | 3.0 | 8.0 | 0.00 | 0.00 | 0.00 | 50 | 1012.4 |
| 20260505223005 | 79 | 274 | 3.0 | 11.0 | 0.00 | 0.00 | 0.00 | 44 | 1012.3 |
| 20260505221504 | 79 | 54 | 0.0 | 8.0 | 0.00 | 0.00 | 0.00 | 46 | 1012.2 |
| 20260505220002 | 79 | 245 | 3.0 | 8.0 | 0.00 | 0.00 | 0.00 | 48 | 1012.5 |
| 20260505214605 | 78 | 266 | 7.0 | 13.0 | 0.00 | 0.00 | 0.00 | 44 | 1012.5 |
| 20260505213104 | 79 | 250 | 6.0 | 12.0 | 0.00 | 0.00 | 0.00 | 48 | 1012.5 |
| 20260505211554 | 79 | 66 | 1.0 | 8.0 | 0.00 | 0.00 | 0.00 | 47 | 1012.7 |
| 20260505210052 | 79 | 268 | 9.0 | 14.0 | 0.00 | 0.00 | 0.00 | 45 | 1012.8 |
| 20260505204550 | 79 | 307 | 1.0 | 10.0 | 0.00 | 0.00 | 0.00 | 45 | 1013.0 |
| 20260505203051 | 80 | 238 | 0.0 | 5.0 | 0.00 | 0.00 | 0.00 | 45 | 1013.1 |
| 20260505201547 | 79 | 158 | 2.0 | 12.0 | 0.00 | 0.00 | 0.00 | 47 | 1013.4 |
| 20260505200043 | 79 | 203 | 2.0 | 8.0 | 0.00 | 0.00 | 0.00 | 48 | 1013.4 |
| 20260505194547 | 78 | 254 | 4.0 | 12.0 | 0.00 | 0.00 | 0.00 | 48 | 1013.6 |
| 20260505193055 | 78 | 229 | 5.0 | 13.0 | 0.00 | 0.00 | 0.00 | 48 | 1014.0 |
| 20260505191540 | 77 | 247 | 4.0 | 11.0 | 0.00 | 0.00 | 0.00 | 51 | 1014.0 |
| 20260505190039 | 77 | 69 | 2.0 | 10.0 | 0.00 | 0.00 | 0.00 | 49 | 1014.3 |
| 20260505184533 | 76 | 258 | 3.0 | 14.0 | 0.00 | 0.00 | 0.00 | 49 | 1014.7 |
| 20260505183031 | 76 | 257 | 3.0 | 9.0 | 0.00 | 0.00 | 0.00 | 50 | 1014.9 |
| 20260505181532 | 76 | 207 | 4.0 | 10.0 | 0.00 | 0.00 | 0.00 | 51 | 1015.1 |
| 20260505180037 | 76 | 252 | 1.0 | 10.0 | 0.00 | 0.00 | 0.00 | 50 | 1015.4 |
| 20260505174527 | 76 | 240 | 1.0 | 7.0 | 0.00 | 0.00 | 0.00 | 53 | 1015.4 |
| 20260505173024 | 75 | 233 | 0.0 | 9.0 | 0.00 | 0.00 | 0.00 | 54 | 1015.6 |
| 20260505171524 | 75 | 254 | 3.0 | 9.0 | 0.00 | 0.00 | 0.00 | 54 | 1015.6 |
| 20260505170024 | 75 | 291 | 2.0 | 10.0 | 0.00 | 0.00 | 0.00 | 54 | 1015.8 |
| 20260505164522 | 74 | 235 | 2.0 | 8.0 | 0.00 | 0.00 | 0.00 | 55 | 1015.9 |
| 20260505163016 | 73 | 255 | 2.0 | 6.0 | 0.00 | 0.00 | 0.00 | 55 | 1016.1 |
| 20260505161516 | 73 | 278 | 2.0 | 8.0 | 0.00 | 0.00 | 0.00 | 57 | 1016.4 |
| 20260505153004 | 69 | 139 | 1.0 | 7.0 | 0.00 | 0.00 | 0.00 | 65 | 1016.6 |
| 20260505151501 | 68 | 236 | 2.0 | 5.0 | 0.00 | 0.00 | 0.00 | 66 | 1016.8 |
| 20260505124532 | 58 | 250 | 1.0 | 4.0 | 0.00 | 0.00 | 0.00 | 84 | 1015.5 |
| 20260505123037 | 56 | 248 | 0.0 | 1.0 | 0.00 | 0.00 | 0.00 | 85 | 1015.6 |
| 20260505121532 | 55 | 217 | 0.0 | 1.0 | 0.00 | 0.00 | 0.00 | 88 | 1015.6 |
| 20260505120039 | 54 | 236 | 0.0 | 1.0 | 0.00 | 0.00 | 0.00 | 89 | 1015.4 |
| 20260505114525 | 53 | 228 | 0.0 | 4.0 | 0.00 | 0.00 | 0.00 | 91 | 1015.0 |
| 20260505113023 | 53 | 140 | 0.0 | 0.0 | 0.00 | 0.00 | 0.00 | 92 | 1014.8 |
| 20260505111530 | 53 | 139 | 0.0 | 0.0 | 0.00 | 0.00 | 0.00 | 91 | 1015.0 |
| 20260505101518 | 53 | 146 | 0.0 | 0.0 | 0.00 | 0.00 | 0.00 | 88 | 1014.7 |
| 20260505100025 | 54 | 146 | 0.0 | 1.0 | 0.00 | 0.00 | 0.00 | 87 | 1014.6 |
| 20260505094518 | 54 | 143 | 0.0 | 1.0 | 0.00 | 0.00 | 0.00 | 85 | 1014.7 |
| 20260505093015 | 54 | 140 | 0.0 | 1.0 | 0.00 | 0.00 | 0.00 | 85 | 1014.9 |
| 20260505091513 | 54 | 140 | 0.0 | 0.0 | 0.00 | 0.00 | 0.00 | 84 | 1015.0 |
| 20260505090015 | 55 | 167 | 0.0 | 1.0 | 0.00 | 0.00 | 0.00 | 85 | 1015.2 |
| 20260505084513 | 55 | 153 | 0.0 | 1.0 | 0.00 | 0.00 | 0.00 | 83 | 1015.0 |
| 20260505083018 | 54 | 153 | 0.0 | 0.0 | 0.00 | 0.00 | 0.00 | 80 | 1015.0 |
| 20260505081510 | 54 | 141 | 0.0 | 2.0 | 0.00 | 0.00 | 0.00 | 81 | 1015.0 |
| 20260505080016 | 53 | 141 | 0.0 | 0.0 | 0.00 | 0.00 | 0.00 | 82 | 1014.8 |
| 20260505074507 | 53 | 141 | 0.0 | 0.0 | 0.00 | 0.00 | 0.00 | 84 | 1014.8 |
| 20260505073015 | 53 | 141 | 0.0 | 2.0 | 0.00 | 0.00 | 0.00 | 86 | 1014.8 |
| 20260505071504 | 53 | 136 | 0.0 | 0.0 | 0.00 | 0.00 | 0.00 | 84 | 1014.6 |
| 20260505070002 | 53 | 134 | 0.0 | 0.0 | 0.00 | 0.00 | 0.00 | 83 | 1014.5 |
| 20260505064501 | 54 | 134 | 0.0 | 0.0 | 0.00 | 0.00 | 0.00 | 82 | 1014.5 |
| 20260505063101 | 54 | 134 | 0.0 | 0.0 | 0.00 | 0.00 | 0.00 | 82 | 1014.6 |
| 20260505061600 | 54 | 134 | 0.0 | 0.0 | 0.00 | 0.00 | 0.00 | 80 | 1014.7 |
| 20260505054554 | 55 | 134 | 0.0 | 0.0 | 0.00 | 0.00 | 0.00 | 81 | 1014.8 |
| 20260505053050 | 56 | 134 | 0.0 | 0.0 | 0.00 | 0.00 | 0.00 | 79 | 1014.9 |
| 20260505051549 | 56 | 134 | 0.0 | 0.0 | 0.00 | 0.00 | 0.00 | 77 | 1014.8 |